Chillicothe, MO

1:59 AM CST on November 22, 2017 (GMT -0600)
Chillicothe

Weather History for KCDJ - November, 2012

Change the Weather History Date:

Sunday, November 18, 2012

  Actual Average (KIRK) Record (KIRK)
Temperature  
Mean Temperature 50 °F -  
Max Temperature 62 °F 51 °F 73 °F (1953)
Min Temperature 37 °F 33 °F 8 °F (2014)
Degree Days  
Heating Degree Days 16    
Moisture  
Dew Point 31 °F    
Average Humidity 46    
Maximum Humidity 68    
Minimum Humidity 34    
Precipitation  
Precipitation 0.00 in - - ()
Sea Level Pressure  
Sea Level Pressure 30.26 in    
Wind  
Wind Speed 7 mph (SSE)    
Max Wind Speed 13 mph    
Max Gust Speed 22 mph    
Averages and records for this station are not official NWS values.
T = Trace of Precipitation, MM = Missing Value Source: NWS Daily Summary

Daily Weather History Graph

Daily Weather History Graph

Search for Another Location

Airport or City:

Trip Planner

Search our weather history database for the weather conditions in past years. The results will help you decide how hot, cold, wet, or windy it might be!

Date:

Astronomy

Nov. 18, 2012 Rise Set
Actual Time 7:03 AM CST 4:55 PM CST
Civil Twilight 6:33 AM CST 5:24 PM CST
Nautical Twilight 6:01 AM CST 5:57 PM CST
Astronomical Twilight 5:28 AM CST 6:29 PM CST
Moon 11:30 AM CST (11/18) 10:16 PM CST (11/18)
Length of Visible Light 10h 51m
Length of Day
9h 52m
Waxing Crescent, 30% of the Moon is Illuminated
Nov 18
Waxing Crescent
Nov 20
First Quarter
Nov 28
Full
Dec 6
Last Quarter
Dec 13
New

Hourly Weather History & Observations

Time (CST) Temp. Windchill Dew Point Humidity Pressure Visibility Wind Dir Wind Speed Gust Speed Precip Events Conditions
12:52 AM 44.1 °F 40.8 °F 28.0 °F 53% 30.32 in - SSE 5.8 mph - N/A   Unknown
1:52 AM 43.0 °F 39.5 °F 28.0 °F 56% 30.32 in - SE 5.8 mph - N/A   Unknown
2:52 AM 39.9 °F 35.8 °F 28.9 °F 65% 30.33 in - SE 5.8 mph - N/A   Unknown
3:52 AM 41.0 °F 37.1 °F 28.0 °F 60% 30.32 in - SSE 5.8 mph - N/A   Unknown
4:52 AM 41.0 °F 39.0 °F 28.0 °F 60% 30.32 in - SE 3.5 mph - N/A   Unknown
5:52 AM 37.9 °F 35.5 °F 28.0 °F 68% 30.32 in - ESE 3.5 mph - N/A   Unknown
6:52 AM 39.0 °F 35.7 °F 28.0 °F 65% 30.31 in - SSE 4.6 mph - N/A   Unknown
7:52 AM 41.0 °F 38.0 °F 28.0 °F 60% 30.32 in - SE 4.6 mph - N/A   Unknown
8:52 AM 46.0 °F 42.5 °F 28.9 °F 51% 30.31 in - SSE 6.9 mph - N/A   Unknown
9:52 AM 53.1 °F - 30.0 °F 41% 30.30 in - South 12.7 mph 21.9 mph N/A   Unknown
10:52 AM 55.9 °F - 32.0 °F 40% 30.30 in - South 12.7 mph - N/A   Unknown
11:52 AM 59.0 °F - 33.1 °F 38% 30.27 in - SSE 11.5 mph - N/A   Unknown
12:52 PM 61.0 °F - 34.0 °F 36% 30.24 in - South 11.5 mph - N/A   Unknown
1:52 PM 62.1 °F - 34.0 °F 35% 30.22 in - South 10.4 mph - N/A   Unknown
2:52 PM 61.0 °F - 33.1 °F 35% 30.21 in - South 8.1 mph - N/A   Unknown
3:52 PM 62.1 °F - 33.1 °F 34% 30.20 in - SSE 9.2 mph - N/A   Unknown
4:52 PM 57.9 °F - 33.1 °F 39% 30.21 in - SE 6.9 mph - N/A   Unknown
5:52 PM 57.0 °F - 33.1 °F 40% 30.22 in - SE 6.9 mph - N/A   Unknown
6:52 PM 57.0 °F - 32.0 °F 39% 30.22 in - SE 6.9 mph - N/A   Unknown
7:52 PM 55.9 °F - 32.0 °F 40% 30.22 in - SSE 5.8 mph - N/A   Unknown
8:52 PM 55.0 °F - 32.0 °F 42% 30.21 in - SSE 6.9 mph - N/A   Unknown
9:52 PM 55.9 °F - 30.9 °F 39% 30.19 in - SSE 9.2 mph 16.1 mph N/A   Unknown
10:52 PM 55.9 °F - 30.0 °F 37% 30.19 in - SSE 8.1 mph - N/A   Unknown
11:52 PM 55.9 °F - 32.0 °F 40% 30.20 in - South 8.1 mph - N/A   Unknown